Starlink 11385

operational
NORAD ID: 62014 Int'l Des: 2024-213 Owner: SPXS Country: US Constellation: starlink
LEOCIRCULAR

About Starlink 11385

Description loading...

Live Position

Loading 3D Globe...

Upcoming Passes

Altitude History

Altitude vs Time

uPlot chart will show altitude changes over time

Two-Line Element Set

1 62014U 24213G 25308.26596081 .00266532 00000-0 21287-2 0 9996
2 62014 53.1570 299.7276 0001755 88.0127 272.1092 15.69780377 55211
Epoch: Nov 4, 2025 • Age: 23 hours

Current Status

Altitude 374.5 km
Velocity 7.68 km/s
Sub-Earth Point -45.28°S, 126.07°E
Launch Date Nov 18, 2024
Age 0.9 years
Type internet

Technical Details

Classification Payload
Mass 960.00 kg
Dry Mass 910.00 kg
Total Mass 960.00 kg
Length 0.30 m
Diameter 4.10 m
Span 29.00 m
Shape Box + pan
Manufacturer SPXS
Bus Type Starlink V2MD
Phase Status In Orbit
Owner/State SPXS/US

Large Constellations

Loading constellations...